| time (UTC) | temp F | wind direction | speed knots | gust knots | rain 1hr in | rain 24hr in | rain mn in | humidity % | barometer mb |
| 20260901231902 | 85 | 282 | 0.0 | 0.0 | 0.00 | 0.00 | 0.00 | 63 | 1018.4 |
| 20260901224901 | 85 | 270 | 1.7 | 1.7 | 0.00 | 0.00 | 0.00 | 60 | 1018.4 |
| 20260901221859 | 87 | 271 | 1.7 | 1.7 | 0.00 | 0.00 | 0.00 | 59 | 1018.4 |
| 20260901214857 | 89 | 277 | 1.7 | 1.7 | 0.00 | 0.00 | 0.00 | 53 | 1018.4 |
| 20260901211854 | 90 | 276 | 1.7 | 1.7 | 0.00 | 0.00 | 0.00 | 54 | 1018.4 |
| 20260901204849 | 91 | 342 | 1.7 | 1.7 | 0.00 | 0.00 | 0.00 | 47 | 1018.4 |
| 20260901201844 | 90 | 292 | 2.6 | 3.5 | 0.00 | 0.00 | 0.00 | 54 | 1018.4 |
| 20260901194844 | 90 | 311 | 2.6 | 3.5 | 0.00 | 0.00 | 0.00 | 50 | 1018.7 |
| 20260901191843 | 91 | 268 | 1.7 | 1.7 | 0.00 | 0.00 | 0.00 | 49 | 1018.7 |
| 20260901184839 | 90 | 243 | 3.5 | 3.5 | 0.00 | 0.00 | 0.00 | 54 | 1019.5 |
| 20260901181838 | 89 | 6 | 2.6 | 2.6 | 0.00 | 0.00 | 0.00 | 56 | 1019.8 |
| 20260901174837 | 88 | 336 | 3.5 | 3.5 | 0.00 | 0.00 | 0.00 | 58 | 1019.8 |
| 20260901171834 | 86 | 210 | 7.0 | 7.8 | 0.00 | 0.00 | 0.00 | 65 | 1019.8 |
| 20260901164830 | 85 | 246 | 3.5 | 3.5 | 0.00 | 0.00 | 0.00 | 70 | 1020.2 |
| 20260901161825 | 81 | 240 | 1.7 | 1.7 | 0.00 | 0.00 | 0.00 | 78 | 1020.5 |
| 20260901154820 | 81 | 234 | 1.7 | 1.7 | 0.00 | 0.00 | 0.00 | 78 | 1020.5 |
| 20260901151819 | 79 | 230 | 1.7 | 1.7 | 0.00 | 0.00 | 0.00 | 79 | 1020.8 |
| 20260901144816 | 78 | 238 | 1.7 | 1.7 | 0.00 | 0.00 | 0.00 | 82 | 1020.8 |
| 20260901141811 | 77 | 257 | 0.9 | 0.9 | 0.00 | 0.00 | 0.00 | 81 | 1021.2 |
| 20260901134806 | 78 | 192 | 0.9 | 0.9 | 0.00 | 0.00 | 0.00 | 83 | 1021.2 |
| 20260901131805 | 76 | 189 | 0.0 | 0.0 | 0.00 | 0.00 | 0.00 | 88 | 1021.2 |
| 20260901124805 | 73 | 186 | 0.0 | 0.0 | 0.00 | 0.00 | 0.00 | 93 | 1021.2 |
| 20260901121805 | 71 | 186 | 0.0 | 0.0 | 0.00 | 0.00 | 0.00 | 94 | 1021.5 |
| 20260901114801 | 69 | 186 | 0.0 | 0.0 | 0.00 | 0.00 | 0.00 | 97 | 1021.5 |
| 20260901111756 | 68 | 186 | 0.0 | 0.0 | 0.00 | 0.00 | 0.00 | 97 | 1021.5 |
| 20260901104753 | 69 | 185 | 0.0 | 0.0 | 0.00 | 0.00 | 0.00 | 97 | 1021.2 |
| 20260901101751 | 69 | 185 | 0.0 | 0.0 | 0.00 | 0.00 | 0.00 | 97 | 1021.2 |
| 20260901094748 | 69 | 185 | 1.7 | 1.7 | 0.00 | 0.00 | 0.00 | 97 | 1020.8 |
| 20260901091748 | 69 | 185 | 0.0 | 0.0 | 0.00 | 0.00 | 0.00 | 97 | 1021.2 |
| 20260901084743 | 69 | 185 | 0.0 | 0.0 | 0.00 | 0.00 | 0.00 | 97 | 1021.2 |
| 20260901081740 | 69 | 185 | 0.0 | 0.0 | 0.00 | 0.00 | 0.00 | 97 | 1021.2 |
| 20260901074735 | 70 | 185 | 0.0 | 0.0 | 0.00 | 0.00 | 0.00 | 97 | 1021.2 |
| 20260901071730 | 69 | 186 | 0.0 | 0.0 | 0.00 | 0.00 | 0.00 | 97 | 1021.2 |
| 20260901064727 | 69 | 186 | 0.0 | 0.0 | 0.00 | 0.00 | 0.00 | 97 | 1021.2 |
| 20260901061726 | 69 | 186 | 0.0 | 0.0 | 0.00 | 0.00 | 0.00 | 97 | 1021.5 |
| 20260901054722 | 68 | 186 | 0.0 | 0.0 | 0.00 | 0.00 | 0.00 | 97 | 1021.9 |
| 20260901051722 | 68 | 186 | 0.0 | 0.0 | 0.00 | 0.00 | 0.00 | 97 | 1022.2 |
| 20260901044721 | 69 | 181 | 0.0 | 0.0 | 0.00 | 0.00 | 0.00 | 97 | 1021.5 |
| 20260901041716 | 69 | 185 | 0.0 | 0.0 | 0.00 | 0.00 | 0.00 | 97 | 1021.9 |
| 20260901034713 | 69 | 185 | 0.0 | 0.0 | 0.00 | 0.04 | 0.04 | 96 | 1022.2 |
| 20260901031713 | 69 | 185 | 0.0 | 0.0 | 0.00 | 0.04 | 0.04 | 96 | 1022.2 |
| 20260901024711 | 69 | 185 | 0.0 | 0.0 | 0.00 | 0.04 | 0.04 | 96 | 1022.5 |
| 20260901021707 | 69 | 185 | 0.0 | 0.0 | 0.00 | 0.04 | 0.04 | 96 | 1022.5 |
| 20260901014706 | 69 | 185 | 0.0 | 0.0 | 0.00 | 0.04 | 0.04 | 96 | 1022.9 |
| 20260901011702 | 69 | 185 | 0.0 | 0.0 | 0.00 | 0.04 | 0.04 | 96 | 1022.2 |
| 20260901004702 | 69 | 185 | 0.0 | 0.0 | 0.00 | 0.04 | 0.04 | 96 | 1021.9 |
| 20260901001659 | 69 | 185 | 0.0 | 0.0 | 0.00 | 0.04 | 0.04 | 96 | 1021.9 |
| 20260831234656 | 69 | 185 | 0.0 | 0.0 | 0.00 | 0.04 | 0.04 | 93 | 1021.9 |